Theta_e
325 324 323 324 322 323 323 322 323 323 323 322 322 322 321 322 322 321 321 321 319 319 318 319 318 318 318 319 318 317 317 319 318 319 318 318 318 319 318 317 319 319
325 324 324 324 323 323 324 324 324 323 323 323 322 321 322 322 321 320 319 318 318 317 318 318 318 317 317 316 316 316 316 317 316 317 318 317 317 318 318 318 318 318
324 324 323 324 322 324 324 325 324 324 323 322 323 323 321 322 321 320 319 319 318 318 318 318 318 317 315 315 315 315 315 314 315 316 316 315 317 317 318 318 317 318
324 324 324 323 324 323 324 323 323 323 324 322 322 322 321 321 321 319 318 317 318 318 318 317 317 316 315 315 316 314 315 314 314 316 314 315 317 316 317 317 317 317
323 323 323 324 324 324 324 323 322 323 322 322 323 322 321 321 320 319 319 318 318 318 318 317 317 316 316 316 315 314 314 313 314 315 313 313 315 316 316 316 315 314
323 322 322 323 324 324 323 322 321 321 322 322 322 322 321 320 319 318 318 318 318 317 316 316 315 315 315 315 315 314 314 313 313 313 311 312 313 314 314 314 314 313
321 322 323 323 324 324 324 323 322 322 322 322 322 322 322 320 319 318 317 317 317 316 315 315 314 315 315 315 313 313 313 313 312 312 310 311 312 312 312 312 311 311
321 323 323 323 324 324 324 322 322 321 322 322 322 322 321 319 318 318 318 317 316 315 315 314 313 313 314 313 312 311 312 312 312 310 310 310 310 310 310 310 310 309
322 323 323 324 324 324 324 323 323 322 322 321 321 322 321 320 318 318 317 316 316 315 314 313 313 312 313 312 312 312 311 311 310 310 309 309 308 309 308 309 309 309
321 321 322 323 323 323 324 324 323 323 321 320 321 321 319 320 319 317 316 316 315 314 313 313 312 312 312 312 311 311 310 310 309 309 309 309 308 308 307 308 308 308
321 321 321 322 323 322 323 323 323 323 321 319 320 321 319 319 318 317 316 315 315 313 312 312 311 311 310 311 312 312 310 309 309 309 309 309 308 308 307 307 307 307
319 321 321 322 323 323 323 322 322 322 320 318 318 318 319 318 317 316 314 314 313 312 312 311 311 311 310 310 310 311 310 310 310 309 308 307 308 308 308 308 307 307
315 317 320 322 322 322 323 322 322 321 319 317 317 316 317 316 316 315 315 313 313 312 311 311 310 310 310 311 310 310 309 308 308 307 307 307 307 307 307 307 307 307
316 317 319 322 322 322 322 322 321 320 318 317 316 315 315 314 315 314 315 313 313 312 312 311 310 310 310 310 310 309 308 307 307 307 306 306 307 307 307 307 307 307
319 319 320 321 322 322 322 322 320 320 318 317 316 315 315 314 315 315 314 312 312 312 311 311 310 310 310 310 309 308 308 307 306 306 305 305 305 306 307 306 306 306
320 321 320 320 321 321 321 320 319 318 317 316 314 314 314 314 314 314 313 312 311 311 311 311 311 312 308 302 301 305 306 306 306 306 305 305 305 305 305 305 304 304
320 321 321 319 321 321 320 318 318 317 316 314 314 314 314 313 313 311 312 312 311 310 310 311 310 311 297 293 293 296 301 305 306 306 305 305 304 303 303 303 304 304
321 322 321 320 320 320 320 318 317 316 314 313 313 313 313 313 313 311 311 312 311 310 310 310 311 300 292 292 292 292 295 302 303 305 305 304 304 303 303 303 303 303
322 321 320 318 318 319 319 317 314 313 312 313 311 312 312 311 312 312 311 311 311 309 309 309 311 294 292 292 292 291 291 295 302 306 305 304 304 303 302 302 303 303
321 320 319 318 319 318 317 314 313 311 312 313 313 314 312 311 313 312 312 312 311 310 309 309 310 295 292 292 292 290 291 292 302 305 304 304 303 302 303 303 303 301
320 319 319 319 318 316 315 313 312 311 311 313 312 312 312 312 312 312 312 312 311 310 309 308 310 293 292 291 291 290 290 291 302 304 303 304 303 303 303 303 302 302
320 318 317 317 315 313 312 311 312 312 313 314 312 312 313 313 314 313 312 311 310 310 308 307 308 291 291 291 291 290 290 298 304 304 304 304 303 303 303 303 303 303
320 318 318 317 316 314 313 314 315 315 315 314 312 312 312 312 313 312 312 311 310 310 308 306 308 295 291 290 291 290 292 301 305 304 304 303 304 304 304 304 303 303
319 317 317 317 316 315 315 316 316 316 314 313 312 312 312 312 312 311 311 311 310 309 308 306 307 298 290 290 291 289 293 301 305 305 305 304 304 304 305 304 303 301
320 318 316 317 318 317 317 316 315 315 312 310 312 312 312 312 311 310 310 310 310 309 306 305 306 300 290 290 289 290 293 302 305 305 305 304 304 304 304 305 305 302
320 318 318 317 316 314 312 314 313 309 310 311 312 310 310 308 309 308 308 309 310 309 309 305 304 306 297 290 290 290 289 297 304 303 304 304 304 304 304 305 304 305
Wind_Speed
7 7 8 8 7 7 7 7 6 6 5 5 5 5 4 3 3 3 3 3 3 3 3 3 3 3 3 1 3 4 4 3 4 3 4 5 5 6 5 5 5 5
8 8 8 8 7 7 6 6 6 6 6 5 5 5 4 4 4 3 3 3 3 4 2 3 3 3 3 4 4 4 4 4 5 3 4 5 5 5 6 6 7 6
9 8 9 9 9 9 8 7 7 6 6 6 6 5 5 4 4 4 3 2 3 2 1 1 2 3 4 4 4 4 3 4 4 4 5 5 4 5 5 5 6 6
9 8 8 9 9 10 9 8 7 7 6 6 6 5 5 5 5 5 4 3 2 2 1 1 2 3 4 4 5 5 4 5 4 4 5 5 4 4 5 5 5 6
9 9 8 9 9 10 9 9 9 8 7 7 6 6 5 5 5 5 4 3 2 2 1 1 2 3 4 4 5 5 5 5 4 4 5 5 4 3 4 4 5 6
9 9 9 9 9 9 9 9 9 8 8 7 7 6 6 6 5 4 4 3 3 2 2 1 2 3 4 5 5 5 5 5 4 5 5 4 4 3 3 4 5 6
10 10 10 9 9 9 8 8 8 8 7 6 7 6 6 6 5 4 4 3 3 2 2 2 2 3 3 5 5 5 4 4 5 4 5 4 3 4 4 4 5 7
11 9 9 9 9 9 8 8 8 7 7 7 7 6 6 6 5 4 3 3 3 2 2 2 3 3 3 4 5 5 3 2 3 4 4 4 4 5 4 4 5 6
11 10 10 10 10 9 9 8 8 8 7 7 7 6 6 5 5 5 4 4 3 3 3 2 3 3 3 4 4 3 4 4 3 4 5 6 6 6 6 5 6 6
10 11 12 11 11 9 10 9 8 7 7 7 7 5 6 5 4 5 5 4 4 3 3 3 3 3 3 3 3 3 4 5 4 5 5 6 6 6 6 6 6 7
8 8 11 11 11 10 10 10 9 8 7 7 6 6 5 5 5 5 5 5 4 4 3 2 3 3 4 2 2 2 4 5 6 6 6 6 6 6 6 6 7 7
11 10 11 12 12 11 11 10 9 9 8 7 7 6 6 5 5 5 5 5 4 3 2 2 2 2 3 2 3 3 4 5 6 6 7 7 7 7 7 7 7 7
13 14 13 13 13 12 10 10 10 9 9 9 7 6 6 6 5 5 4 4 3 2 3 2 3 3 2 2 3 3 4 5 6 7 7 7 7 7 7 7 7 7
14 14 13 13 12 12 11 9 7 8 8 7 7 6 6 6 6 6 5 4 3 3 2 2 3 2 2 2 2 2 4 5 6 7 7 7 8 8 8 7 7 7
14 14 13 12 11 11 10 8 8 7 6 6 6 6 5 6 6 6 6 5 4 4 4 3 2 1 1 1 3 3 3 5 6 6 7 8 8 8 7 6 6 5
14 13 12 13 11 11 9 8 8 8 8 6 7 7 7 6 6 6 6 5 5 4 3 2 2 1 6 7 5 5 5 5 5 6 7 7 7 6 6 5 5 5
12 11 12 14 12 9 8 8 8 8 8 8 7 7 7 7 6 7 7 6 5 4 4 3 3 4 9 7 6 4 3 5 6 7 7 6 6 5 5 5 5 4
10 11 12 12 12 12 10 9 8 8 8 9 8 7 7 8 9 9 8 6 4 4 4 4 2 9 9 8 6 5 3 4 6 6 5 5 5 4 4 4 4 4
9 10 9 11 12 13 11 9 9 9 9 10 10 9 8 9 9 9 8 7 6 6 5 4 4 10 10 8 7 4 2 5 7 5 5 5 4 4 4 4 4 4
8 9 9 12 12 11 8 9 9 10 10 10 8 8 9 9 10 10 8 8 7 6 5 5 4 10 10 8 7 4 4 6 7 4 4 4 4 4 4 4 3 3
6 6 8 8 8 9 8 8 9 9 11 10 9 10 10 11 11 10 9 8 7 6 5 5 5 12 10 9 7 4 5 7 7 4 4 4 4 4 4 4 4 3
5 7 8 8 7 7 8 9 10 11 13 11 10 9 10 10 10 9 9 8 7 7 6 6 7 12 10 9 7 5 6 7 6 4 4 4 3 4 4 4 3 3
4 6 7 7 9 10 11 11 11 11 10 10 10 10 11 10 10 9 8 8 8 8 7 5 7 10 11 9 7 7 6 8 4 4 4 4 4 3 4 3 3 3
4 5 6 7 9 11 11 12 12 11 9 7 9 9 10 10 9 8 8 8 8 8 6 5 5 11 12 10 8 8 8 7 5 4 3 4 4 3 4 3 2 4
5 6 7 6 6 7 7 8 6 6 6 7 7 9 9 9 9 8 8 8 8 7 7 6 4 10 11 11 9 8 7 7 5 4 4 4 4 4 4 3 4 9
5 6 7 7 6 3 2 3 5 6 8 7 6 6 5 6 7 7 8 7 7 7 7 7 6 7 11 11 10 9 9 8 6 4 5 4 4 3 2 4 3 2
Wind_Direction
188 181 168 163 160 154 154 152 152 150 143 142 138 134 131 126 129 113 105 81 73 82 73 55 46 27 351 2 353 318 310 318 301 294 297 293 289 284 280 279 280 285
195 187 170 161 153 151 151 152 151 151 146 146 139 138 131 138 135 129 120 128 123 85 54 45 27 13 354 357 351 320 311 320 306 302 291 286 279 273 268 270 270 271
194 186 174 162 154 152 152 153 155 155 155 150 147 147 141 141 144 132 131 118 98 95 74 20 7 350 347 351 341 322 322 314 298 313 308 298 299 286 282 278 273 271
194 188 177 163 155 155 155 158 160 162 159 158 164 156 152 153 151 147 143 155 150 134 104 345 336 332 338 335 326 320 319 306 314 315 296 289 285 298 296 296 288 281
193 190 184 168 161 158 159 163 166 166 167 164 162 164 161 157 166 160 163 168 169 182 182 250 305 319 319 324 326 314 319 309 308 316 302 292 290 292 297 292 289 286
195 195 190 179 167 163 166 168 169 168 168 168 171 174 166 166 177 166 178 187 187 200 204 262 297 314 318 325 318 316 316 314 325 310 302 297 291 306 306 298 288 276
192 198 193 184 175 171 171 172 167 170 170 172 176 181 169 176 177 183 187 199 207 212 251 247 293 297 322 317 317 318 320 328 318 315 313 316 326 309 285 288 293 289
190 195 195 189 183 179 181 174 171 173 170 178 180 180 179 179 184 173 197 210 228 234 221 268 288 313 313 319 317 318 315 301 310 319 316 312 309 301 301 293 289 284
191 193 197 197 190 190 190 182 175 174 176 183 187 179 185 186 181 179 195 209 215 227 252 282 295 311 315 313 314 314 314 305 310 311 314 312 308 308 304 305 297 290
204 200 203 203 201 198 195 190 183 180 183 189 191 184 183 185 178 192 187 205 220 229 245 252 286 297 298 308 325 327 307 307 307 300 303 309 306 304 308 304 298 294
228 218 213 207 207 201 196 194 192 189 187 191 187 188 187 177 186 191 200 206 204 235 245 254 277 300 311 297 265 278 304 308 310 313 312 302 301 299 293 290 289 286
211 221 222 211 210 207 198 197 194 192 184 190 189 190 182 188 191 192 211 208 208 217 253 271 275 296 298 307 294 292 298 303 303 304 303 301 299 296 296 296 290 287
211 220 222 222 216 212 206 202 194 188 185 187 181 184 183 193 187 199 209 227 212 212 241 254 288 301 299 273 283 294 302 309 303 300 298 299 297 294 294 292 289 288
218 220 222 221 218 213 204 192 182 181 189 179 168 179 185 191 190 198 200 216 205 217 218 248 252 233 248 287 295 307 314 307 304 300 297 298 298 296 291 288 288 284
215 219 219 216 208 207 197 184 180 173 170 164 160 171 188 191 191 202 201 212 200 208 221 205 246 260 259 336 315 309 305 299 300 299 296 295 295 296 297 296 293 295
217 217 220 218 205 197 184 179 180 173 168 167 174 181 182 183 184 204 209 210 211 208 215 214 214 222 86 65 20 339 327 314 301 294 296 299 298 297 297 295 292 291
226 221 215 218 206 184 175 179 179 173 173 171 177 184 175 161 177 200 207 211 212 212 209 214 218 110 104 105 99 42 307 300 298 294 293 292 288 293 293 294 294 292
224 222 219 215 203 194 185 180 174 174 174 173 173 176 171 170 189 201 201 201 207 211 214 220 188 115 130 122 114 96 356 303 295 287 287 280 285 288 286 289 288 287
235 231 229 226 216 210 192 169 172 173 177 179 184 181 167 182 193 196 194 192 198 207 212 209 169 136 134 142 130 143 168 276 270 278 275 279 286 280 283 284 292 295
238 238 230 231 222 201 165 167 168 176 180 186 184 171 177 188 196 195 193 194 197 204 212 206 171 141 144 145 142 164 216 253 272 273 276 279 277 280 273 271 280 295
262 251 252 248 199 170 169 172 175 178 185 190 186 178 186 194 192 193 193 192 191 200 209 202 138 140 146 151 150 184 222 256 258 255 256 257 255 254 263 269 275 270
248 243 238 212 176 168 173 183 185 190 192 193 188 185 192 195 192 193 189 189 192 195 202 203 135 147 145 155 156 195 230 244 241 243 249 252 247 247 253 255 261 270
245 250 238 226 208 190 189 192 194 194 192 196 184 185 192 194 190 190 189 193 190 194 193 202 148 153 151 160 171 197 234 243 241 242 238 242 247 236 243 244 247 251
247 234 235 222 214 215 213 210 201 194 184 178 186 189 197 194 188 189 192 192 191 190 193 196 178 151 160 161 176 195 248 267 241 234 230 247 236 227 245 247 154 125
236 236 222 227 229 223 207 177 171 163 142 153 187 212 206 197 192 194 191 192 188 193 157 192 182 148 163 162 185 190 224 242 250 251 228 227 237 220 223 239 190 170
222 210 220 223 200 165 104 164 152 150 168 195 199 210 207 200 193 202 192 195 183 186 169 196 208 174 163 169 177 191 230 264 270 247 242 222 234 272 242 184 212 177